Temp
4 4 4 3 3 3 2 2 2 2 1 1 1 1 1 1 1 1 1 1 1 1 1 1 1 1 1 1 2 2 2 2 2 2 1 1 1 1 1 1 1 2 2 2 2 2 2 2 2 2 2 2 2 3 3 3 3 4 4 4 4 3 3 4 4 4 4 5 5
4 3 3 3 2 2 2 1 1 1 1 1 1 0 0 0 0 0 1 1 1 1 1 1 1 1 1 1 1 1 1 1 1 1 1 1 1 1 1 1 1 1 1 1 1 1 1 1 1 1 1 2 2 2 2 3 3 3 3 3 3 3 3 3 3 3 4 4 5
3 3 2 2 2 1 1 1 0 0 0 -0 -0 -0 -0 -0 -0 -0 -0 0 0 0 0 0 1 1 1 1 1 1 1 1 1 1 1 1 1 1 1 1 1 1 1 1 1 1 1 1 1 1 1 1 1 2 2 2 2 3 3 3 3 3 3 3 3 3 3 4 4
2 2 1 1 1 0 -0 -0 -0 -1 -1 -1 -1 -1 -1 -1 -0 -0 -0 -0 -0 0 0 0 0 0 1 1 1 0 0 0 0 1 1 1 1 1 1 1 1 1 1 1 1 1 1 1 1 1 1 1 1 1 1 2 2 2 2 2 3 3 2 2 3 3 3 3 3
1 1 0 -0 -0 -1 -1 -1 -1 -1 -1 -1 -1 -1 -1 -1 -0 -0 -0 -0 0 0 0 0 0 0 0 0 0 0 0 0 0 0 0 0 0 0 0 0 0 0 1 1 1 1 1 1 1 1 1 1 1 1 1 1 2 2 2 2 2 2 2 2 2 2 2 2 3
0 -0 -0 -1 -1 -1 -1 -1 -1 -1 -1 -1 -1 -1 -1 -1 -1 -1 -0 -0 -0 -0 -0 -0 -0 -0 -0 -0 0 0 0 0 0 0 0 0 0 0 0 0 0 0 0 0 0 0 0 1 0 0 1 1 1 1 1 1 1 1 1 2 2 2 2 2 2 2 2 2 2
-0 -1 -1 -1 -1 -1 -1 -2 -2 -2 -2 -2 -2 -2 -1 -1 -1 -1 -1 -1 -1 -1 -1 -1 -1 -1 -0 -0 -0 -0 0 0 0 0 0 -0 -0 -0 0 0 0 0 0 0 0 0 0 0 0 0 0 1 1 1 1 1 1 1 1 1 1 1 2 2 2 2 2 2 2
-1 -1 -1 -1 -1 -2 -2 -2 -2 -2 -2 -2 -2 -2 -1 -1 -1 -1 -1 -1 -1 -1 -1 -1 -1 -1 -1 -0 -0 -0 -0 -0 0 0 -0 -0 -0 0 0 0 0 0 0 0 0 0 0 1 1 1 1 1 1 1 1 1 1 1 1 1 1 1 1 1 2 2 2 2 2
-1 -1 -2 -2 -2 -2 -2 -2 -2 -2 -2 -2 -2 -1 -1 -1 -1 -1 -1 -1 -1 -1 -1 -1 -1 -1 -1 -0 -0 -0 -0 -0 -0 -0 -0 -0 -0 -0 -0 -0 -0 -0 -0 -0 -0 -0 0 -0 -0 0 0 0 1 1 1 1 1 1 1 1 1 1 1 1 1 2 2 1 1
-2 -2 -2 -2 -2 -2 -2 -2 -2 -2 -2 -2 -2 -2 -1 -1 -1 -1 -1 -1 -1 -1 -1 -1 -1 -1 -1 -0 -0 -0 -0 -0 -0 -0 -0 -0 -0 -0 -0 -0 -0 -0 -0 -0 -0 -0 -0 -0 -0 -0 -0 0 0 0 1 1 1 1 1 1 1 1 1 1 1 1 1 1 1
-2 -2 -2 -2 -2 -2 -2 -2 -2 -2 -2 -2 -2 -2 -2 -2 -1 -1 -1 -1 -1 -1 -1 -1 -1 -1 -0 -0 -0 -0 -1 -1 -1 -0 -0 -0 -0 -0 -0 -1 -1 -1 -1 -1 -1 -1 -1 -1 -1 -1 -0 -0 -0 0 0 0 1 1 1 0 1 1 1 1 1 1 1 1 1
-2 -3 -3 -3 -3 -3 -3 -3 -3 -3 -2 -2 -2 -2 -2 -1 -1 -1 -1 -1 -1 -1 -1 -1 -1 -1 -1 -1 -1 -1 -1 -1 -1 -1 -1 -1 -1 -1 -1 -1 -1 -1 -1 -1 -1 -1 -1 -1 -1 -1 -1 -1 -0 -0 -0 -0 0 0 0 0 0 0 1 1 1 1 1 1 1
-3 -3 -3 -3 -3 -3 -3 -3 -3 -3 -2 -2 -2 -2 -1 -1 -1 -1 -1 -1 -1 -1 -1 -1 -1 -1 -1 -1 -1 -1 -1 -1 -1 -1 -1 -1 -1 -1 -1 -1 -1 -1 -1 -1 -1 -1 -1 -1 -1 -1 -1 -1 -1 -1 -1 -1 -0 -0 0 0 0 0 0 0 1 1 1 1 1
-3 -3 -3 -3 -3 -3 -3 -3 -3 -2 -2 -2 -2 -2 -1 -1 -1 -1 -1 -1 -1 -1 -2 -2 -2 -2 -2 -2 -2 -2 -2 -2 -1 -1 -1 -1 -1 -1 -1 -1 -1 -1 -1 -1 -1 -1 -1 -1 -1 -1 -1 -1 -1 -1 -1 -1 -1 -0 -0 -0 0 0 0 0 0 1 1 1 1
-3 -3 -3 -3 -3 -3 -3 -3 -3 -2 -2 -2 -2 -1 -1 -1 -1 -1 -1 -2 -2 -2 -2 -2 -2 -2 -2 -2 -2 -2 -2 -2 -2 -2 -2 -2 -2 -2 -2 -1 -1 -1 -1 -1 -1 -1 -1 -1 -1 -1 -1 -1 -1 -1 -1 -1 -1 -1 -0 -0 -0 0 0 0 0 0 1 1 1
-3 -3 -3 -3 -3 -3 -3 -3 -2 -2 -2 -2 -1 -1 -1 -1 -2 -2 -2 -2 -2 -2 -2 -2 -2 -2 -2 -2 -2 -2 -2 -2 -2 -2 -2 -2 -2 -2 -2 -2 -1 -1 -1 -1 -1 -1 -1 -1 -1 -1 -1 -1 -1 -1 -1 -1 -1 -1 -1 -0 -0 0 0 0 0 1 1 1 1
-3 -3 -3 -3 -3 -3 -3 -3 -2 -2 -2 -1 -1 -2 -2 -2 -2 -2 -2 -2 -2 -3 -3 -3 -3 -3 -3 -3 -2 -2 -2 -2 -2 -2 -2 -2 -2 -2 -1 -1 -1 -1 -1 -1 -1 -1 -1 -1 -1 -1 -1 -1 -1 -1 -1 -1 -1 -1 -0 -0 -0 -0 0 0 0 1 1 1 1
-3 -3 -3 -3 -3 -3 -3 -2 -2 -2 -2 -2 -2 -2 -2 -2 -3 -3 -3 -3 -3 -3 -3 -3 -3 -3 -3 -3 -3 -2 -2 -2 -2 -2 -2 -2 -2 -1 -1 -1 -1 -1 -1 -1 -1 -1 -1 -1 -1 -1 -1 -1 -1 -1 -0 -0 -0 -0 -0 -0 -0 0 0 0 0 0 1 1 1
-3 -3 -3 -3 -3 -3 -3 -2 -2 -2 -2 -2 -3 -3 -3 -3 -3 -3 -3 -3 -3 -3 -3 -3 -3 -3 -3 -3 -2 -2 -2 -2 -2 -2 -2 -2 -1 -1 -1 -1 -1 -1 -1 -1 -1 -1 -1 -1 -1 -1 -0 -0 -0 -0 -0 -0 -0 -0 -0 -0 0 0 0 0 0 1 1 1 1
-3 -3 -3 -3 -3 -3 -3 -3 -2 -2 -3 -3 -3 -3 -3 -3 -3 -3 -3 -3 -3 -3 -3 -3 -3 -3 -3 -3 -2 -2 -2 -2 -2 -2 -2 -1 -1 -1 -1 -1 -1 -1 -1 -1 -1 -1 -1 -1 -0 -0 -0 -0 -0 -0 -0 -0 -0 -0 0 0 0 0 0 0 1 1 1 1 1
-3 -3 -3 -3 -3 -3 -3 -3 -3 -3 -3 -4 -4 -4 -4 -3 -3 -3 -3 -3 -3 -3 -3 -3 -3 -3 -3 -2 -2 -2 -2 -2 -2 -2 -2 -1 -1 -1 -1 -1 -1 -1 -1 -1 -1 -0 -0 -0 -0 -0 -0 -0 -0 0 0 0 0 0 0 0 0 0 0 1 1 1 1 1 1
-3 -3 -3 -3 -3 -3 -3 -4 -4 -4 -4 -4 -4 -4 -4 -4 -4 -4 -3 -3 -3 -3 -3 -3 -3 -3 -2 -2 -2 -2 -2 -2 -2 -2 -2 -1 -1 -1 -1 -1 -1 -1 -1 -0 -0 -0 0 0 0 0 0 0 0 0 0 0 0 0 0 0 0 0 1 1 1 1 1 1 1
-3 -3 -4 -4 -4 -4 -4 -4 -4 -4 -4 -4 -4 -4 -4 -4 -4 -4 -3 -3 -3 -3 -3 -3 -3 -2 -2 -2 -2 -2 -2 -2 -2 -2 -1 -1 -1 -1 -1 -1 -1 -1 -0 -0 0 0 0 1 1 1 1 1 1 1 1 1 1 0 1 1 1 1 1 1 1 1 1 1 1
-4 -4 -4 -4 -4 -4 -4 -4 -4 -4 -4 -4 -4 -4 -4 -4 -4 -4 -3 -3 -3 -3 -3 -3 -3 -2 -2 -2 -2 -2 -2 -2 -2 -2 -1 -1 -1 -1 -1 -1 -0 -0 0 0 0 0 1 1 1 1 1 1 1 0 0 1 1 1 1 1 1 1 1 1 1 1 1 1 1
-4 -4 -4 -4 -5 -5 -4 -4 -4 -4 -4 -4 -4 -4 -4 -4 -4 -3 -3 -3 -3 -3 -3 -3 -2 -2 -2 -2 -2 -2 -2 -2 -2 -1 -1 -1 -1 -0 -0 -0 0 0 0 0 0 1 1 1 1 0 0 -0 -0 -0 -0 -0 -0 0 -0 -0 0 1 1 1 1 1 1 1 1
-4 -5 -5 -5 -5 -5 -4 -4 -4 -4 -4 -4 -4 -4 -4 -4 -4 -3 -3 -3 -3 -3 -3 -3 -3 -3 -2 -2 -2 -2 -2 -2 -2 -1 -1 -1 -0 -0 -0 -0 -0 0 0 0 0 0 -0 -0 -0 -0 -0 -1 -1 -1 -0 -0 -0 -0 -0 -0 -0 0 0 1 1 2 2 2 2
-5 -5 -5 -5 -5 -5 -4 -4 -4 -4 -4 -4 -4 -4 -4 -4 -4 -3 -3 -3 -3 -3 -3 -3 -3 -3 -3 -2 -2 -2 -2 -2 -1 -1 -1 -1 -1 -1 -1 -0 -0 -0 -0 -0 -0 -0 -0 -0 -0 -1 -1 -1 -0 -0 -0 -0 -0 -0 -0 -0 -0 -0 0 0 1 1 1 2 2
-5 -5 -5 -5 -5 -5 -4 -4 -4 -4 -4 -4 -4 -4 -4 -4 -3 -3 -3 -3 -3 -3 -3 -3 -3 -3 -3 -2 -2 -2 -2 -2 -1 -1 -1 -1 -1 -1 -0 -0 -0 -1 -1 -1 -1 -1 -1 -1 -1 -1 -1 -1 -1 -1 -1 -1 -1 -1 -1 -1 -1 -0 -0 -0 -0 0 1 1 2
-5 -5 -5 -5 -5 -5 -4 -4 -4 -4 -4 -4 -4 -4 -4 -4 -3 -3 -3 -3 -3 -3 -3 -3 -3 -3 -3 -3 -2 -2 -2 -2 -2 -2 -1 -1 -1 -1 -0 -1 -1 -1 -1 -1 -1 -1 -1 -1 -1 -1 -1 -1 -1 -1 -1 -1 -1 -1 -1 -1 -1 -1 -1 -0 -0 -0 0 1 1
-5 -5 -5 -5 -5 -5 -4 -4 -4 -4 -4 -4 -4 -4 -4 -4 -4 -4 -4 -3 -3 -3 -3 -3 -3 -3 -3 -3 -2 -2 -2 -2 -2 -2 -1 -1 -1 -1 -1 -1 -1 -1 -1 -1 -1 -1 -1 -1 -1 -1 -1 -1 -1 -1 -1 -1 -1 -1 -1 -1 -1 -1 -1 -1 -1 -0 -0 0 1
-5 -5 -5 -5 -5 -4 -4 -4 -4 -4 -4 -4 -4 -4 -4 -4 -4 -4 -4 -4 -4 -4 -3 -3 -3 -3 -3 -3 -3 -2 -2 -2 -2 -1 -1 -1 -1 -1 -1 -1 -1 -1 -1 -1 -1 -1 -1 -1 -1 -2 -2 -2 -2 -2 -1 -1 -1 -1 -1 -1 -1 -1 -1 -1 -1 -1 -0 -0 0
-5 -5 -5 -5 -5 -4 -4 -4 -4 -4 -4 -4 -4 -4 -4 -4 -4 -4 -4 -4 -4 -4 -4 -3 -3 -3 -3 -3 -3 -2 -2 -2 -2 -2 -2 -2 -2 -2 -2 -2 -2 -2 -2 -2 -2 -2 -2 -2 -2 -2 -2 -2 -2 -2 -2 -2 -2 -2 -2 -1 -1 -1 -1 -1 -1 -1 -1 -0 0
-5 -5 -5 -5 -5 -4 -4 -4 -4 -4 -4 -4 -4 -4 -4 -4 -4 -4 -4 -4 -4 -4 -4 -4 -4 -3 -3 -3 -3 -2 -2 -2 -2 -2 -2 -2 -2 -2 -2 -2 -2 -2 -2 -2 -2 -2 -2 -2 -2 -2 -2 -2 -2 -2 -2 -2 -2 -2 -2 -2 -1 -1 -1 -1 -1 -1 -1 -1 -0
-5 -5 -5 -5 -4 -4 -4 -4 -4 -4 -4 -4 -4 -4 -4 -4 -4 -4 -4 -4 -4 -4 -4 -4 -4 -4 -3 -3 -3 -3 -3 -3 -3 -3 -3 -3 -3 -3 -3 -3 -2 -2 -2 -2 -2 -2 -2 -2 -2 -2 -2 -2 -2 -2 -2 -2 -2 -2 -2 -2 -2 -1 -1 -1 -1 -1 -1 -1 -1
-5 -5 -5 -5 -5 -4 -4 -4 -4 -4 -4 -4 -4 -4 -4 -4 -4 -5 -5 -5 -5 -4 -4 -4 -4 -4 -4 -3 -3 -3 -3 -3 -3 -3 -3 -3 -3 -3 -3 -3 -3 -3 -3 -3 -3 -3 -3 -3 -3 -3 -3 -2 -2 -2 -2 -2 -2 -2 -2 -2 -1 -1 -1 -1 -1 -1 -1 -1 -1
-5 -5 -5 -5 -5 -4 -4 -4 -4 -4 -4 -4 -4 -4 -5 -5 -5 -5 -5 -5 -5 -5 -5 -5 -4 -4 -4 -4 -4 -4 -4 -4 -3 -3 -3 -3 -3 -3 -3 -3 -3 -3 -3 -3 -3 -3 -3 -3 -3 -3 -3 -2 -2 -2 -2 -2 -2 -2 -1 -1 -1 -1 -1 -1 -1 -1 -1 -1 -1
-5 -5 -5 -5 -5 -5 -4 -4 -4 -4 -4 -4 -5 -5 -5 -5 -5 -5 -5 -5 -5 -5 -5 -5 -4 -4 -4 -4 -4 -4 -4 -4 -4 -4 -4 -4 -4 -4 -3 -3 -3 -3 -3 -3 -3 -3 -3 -3 -3 -3 -3 -2 -2 -2 -2 -1 -1 -1 -1 -1 -1 -1 -1 -1 -1 -1 -1 -1 -1
-5 -5 -5 -5 -5 -5 -5 -5 -5 -4 -4 -5 -5 -5 -5 -5 -5 -5 -5 -5 -5 -5 -5 -5 -5 -5 -4 -4 -4 -4 -4 -4 -4 -4 -4 -4 -4 -4 -4 -3 -3 -4 -4 -4 -4 -3 -3 -3 -3 -3 -3 -2 -2 -2 -1 -1 -1 -0 -0 -1 -1 -1 -1 -1 -1 -1 -1 -1 -1
-5 -5 -5 -5 -5 -5 -5 -5 -5 -5 -5 -5 -5 -5 -5 -5 -5 -5 -5 -5 -5 -5 -5 -5 -5 -5 -5 -5 -5 -4 -4 -4 -4 -4 -4 -4 -4 -4 -4 -4 -4 -4 -4 -4 -4 -4 -3 -3 -3 -3 -2 -2 -2 -2 -1 -1 -0 -0 -0 -0 -1 -1 -1 -1 -1 -1 -1 -1 -0
-5 -5 -5 -5 -5 -5 -5 -5 -5 -5 -5 -5 -5 -5 -5 -5 -5 -6 -6 -6 -5 -5 -5 -5 -5 -5 -5 -5 -5 -5 -4 -4 -4 -4 -4 -4 -4 -4 -4 -4 -4 -4 -4 -4 -4 -4 -3 -3 -3 -3 -2 -2 -2 -1 -1 -1 -0 -0 -0 -0 -1 -1 -1 -1 -1 -1 -0 -0 -0
-5 -5 -5 -5 -5 -5 -5 -5 -5 -5 -5 -5 -6 -6 -6 -6 -6 -6 -6 -6 -5 -5 -5 -5 -5 -5 -5 -5 -5 -5 -5 -5 -4 -4 -4 -4 -4 -4 -4 -4 -4 -4 -4 -4 -4 -4 -3 -3 -3 -3 -2 -2 -2 -1 -1 -1 -0 -0 -0 -0 -1 -1 -1 -1 -1 -0 -0 -0 -0
Height
744 744 744 744 744 743 743 742 742 741 741 740 739 739 738 737 737 736 735 735 734 733 733 732 732 731 731 731 731 730 730 729 729 729 729 728 728 728 728 728 727 727 727 727 727 726 726 726 726 726 725 724 724 723 723 723 723 723 722 722 722 722 721 721 721 720 720 720 719
743 743 743 743 742 742 742 741 740 740 740 739 738 737 737 736 735 734 733 733 732 732 732 731 730 730 729 729 729 729 728 728 727 727 727 727 726 726 726 726 726 726 725 725 725 725 724 724 724 724 723 722 722 722 721 721 721 721 720 720 720 720 720 719 719 719 719 718 718
742 742 742 742 742 741 741 740 739 738 738 737 737 736 735 735 734 733 732 731 731 731 730 729 729 728 728 727 727 727 727 726 726 726 725 725 725 724 724 724 724 724 723 723 723 723 722 722 722 722 721 720 720 719 719 719 719 719 718 718 718 718 718 717 717 717 717 717 717
742 741 741 741 741 740 740 739 738 737 737 736 736 735 734 733 732 732 731 730 730 729 729 728 727 727 726 726 726 725 725 725 724 724 724 723 723 722 722 722 722 722 722 722 721 721 721 720 720 719 719 718 718 717 717 717 717 717 717 716 716 716 716 715 715 715 716 715 715
741 741 740 740 740 739 739 738 738 737 736 735 735 734 733 732 732 731 730 729 728 728 727 727 726 726 725 725 724 723 723 723 722 722 722 721 721 721 720 720 720 720 719 719 719 719 718 718 718 717 717 716 716 715 715 715 715 715 714 714 714 714 714 713 713 713 713 713 713
740 740 740 740 739 739 738 737 737 736 735 734 733 732 732 731 730 730 729 728 727 727 726 725 725 724 723 723 722 722 721 721 720 720 720 719 719 718 718 718 718 718 717 717 717 717 716 716 715 715 714 714 713 712 712 713 713 712 712 712 712 712 712 712 711 711 711 711 711
740 739 739 739 738 738 737 736 736 735 734 733 732 731 730 730 729 728 727 727 726 725 724 724 723 722 722 721 720 720 719 719 718 718 718 717 717 717 717 716 716 716 715 715 714 714 714 713 713 712 712 711 711 710 710 710 710 710 709 709 709 710 710 709 709 709 709 709 709
739 739 738 738 737 737 736 735 734 733 732 732 731 730 729 728 727 727 726 725 724 723 722 722 721 720 720 719 718 718 717 717 717 716 716 716 715 715 714 714 714 713 713 712 712 712 712 711 711 710 709 709 709 708 708 708 708 707 707 707 707 707 707 707 707 707 707 707 707
738 738 737 737 736 735 734 733 733 732 731 730 729 728 727 727 726 725 724 723 722 721 721 720 719 718 717 717 716 716 715 715 714 714 714 713 713 712 712 712 712 711 711 711 711 710 710 710 709 708 707 707 707 706 706 706 706 705 704 704 704 704 705 705 705 705 705 704 704
737 737 736 735 734 734 733 732 731 730 730 728 727 727 726 725 724 723 722 721 720 719 718 718 717 716 715 715 714 714 713 713 712 712 712 712 711 711 710 710 709 709 709 708 708 708 708 707 707 706 705 705 705 704 704 704 704 703 702 702 702 702 702 702 702 702 702 702 702
736 736 735 734 733 732 732 731 730 729 728 727 726 725 724 723 722 721 720 719 718 717 717 716 715 715 714 713 712 712 712 711 711 710 710 709 709 708 708 707 707 707 706 706 706 706 706 705 704 703 703 702 702 702 702 702 702 701 700 699 699 699 699 699 699 700 700 700 699
735 735 734 733 732 731 730 729 728 727 727 725 724 723 722 721 720 719 718 717 717 716 715 715 714 714 713 712 711 711 710 710 709 709 708 707 707 706 706 705 705 704 704 703 703 703 703 702 702 701 701 700 700 700 699 699 699 698 698 697 697 697 697 696 697 697 697 697 697
734 733 733 732 731 730 729 728 727 726 725 724 722 721 720 719 718 717 717 716 715 714 714 713 713 712 712 711 710 710 709 708 707 707 706 705 704 704 703 702 702 702 701 701 701 701 700 699 699 698 698 697 697 697 697 697 697 696 695 695 695 695 694 694 694 694 695 695 694
733 732 732 731 730 729 728 727 726 725 723 722 721 720 718 717 717 716 716 715 714 713 712 712 711 711 710 709 708 707 707 706 705 704 703 702 702 701 701 700 699 699 699 698 698 698 697 697 696 696 695 695 694 694 694 694 694 693 693 692 692 692 692 691 692 692 692 692 692
732 731 730 729 728 727 727 726 724 723 722 720 719 718 717 717 716 715 714 713 712 712 711 710 709 708 708 707 706 705 704 703 702 702 701 700 699 699 698 697 697 697 696 696 696 695 695 694 694 693 693 692 692 691 691 691 691 691 690 690 689 689 689 689 689 689 689 689 689
731 730 729 728 727 726 725 724 723 722 720 719 718 717 717 716 715 714 713 712 711 710 709 708 707 707 706 705 704 703 702 701 700 699 698 697 697 696 696 695 694 694 694 693 693 692 692 692 691 691 690 689 689 688 688 688 688 687 687 687 687 686 686 686 686 687 686 686 686
730 729 728 727 726 725 724 723 722 720 719 718 717 717 716 715 714 713 712 711 710 709 707 707 706 705 703 702 702 701 700 699 698 697 696 695 695 694 693 692 692 692 691 691 690 690 689 689 688 688 687 687 686 686 685 685 685 684 684 684 683 683 683 683 683 683 683 683 683
728 727 727 726 725 724 723 722 721 719 718 717 716 715 714 713 712 711 710 709 708 707 706 704 704 703 702 701 699 699 698 697 696 695 694 693 692 692 691 690 690 689 689 688 688 687 687 686 686 685 685 684 683 683 682 682 682 681 681 681 680 680 680 680 680 680 680 680 680
727 727 726 725 724 723 722 721 719 718 717 716 715 714 713 712 711 710 708 707 706 705 704 702 702 701 699 698 697 697 696 695 694 693 692 691 690 690 689 688 687 687 687 686 685 684 684 683 683 682 682 682 681 680 680 679 679 678 678 677 677 677 677 677 677 677 677 677 676
727 726 725 724 723 722 721 719 718 717 716 715 714 713 712 710 709 708 707 705 704 703 702 701 699 698 697 696 695 694 693 693 692 691 690 689 688 687 687 686 685 685 684 683 683 682 681 681 680 680 679 679 678 677 677 676 676 675 675 674 674 673 673 673 673 673 673 673 673
726 725 724 723 722 721 719 718 717 716 715 714 712 711 710 708 707 706 705 703 702 701 700 699 698 697 695 694 693 692 692 691 690 689 688 687 686 685 684 684 683 682 682 681 680 679 679 678 677 677 676 676 675 674 674 673 672 672 671 671 670 670 669 669 669 669 670 670 670
725 724 723 722 721 720 718 717 716 715 713 712 711 709 708 707 706 704 703 702 701 699 698 697 696 695 694 693 692 691 690 689 688 687 686 685 684 683 682 682 681 680 679 678 677 677 676 675 675 674 673 672 672 671 670 670 669 668 667 667 666 666 666 666 666 666 666 666 666
724 723 722 721 720 718 717 716 714 713 712 710 709 708 707 705 704 702 701 700 699 698 697 695 694 693 692 691 690 689 688 687 686 685 684 683 682 681 680 679 678 677 677 676 675 675 674 673 672 671 671 670 669 668 668 667 666 665 664 663 663 663 663 663 663 663 663 662 663
723 722 721 720 718 717 716 714 713 712 710 709 708 707 705 704 702 701 700 698 697 696 695 694 693 692 691 690 688 687 686 685 684 682 682 681 680 679 678 677 677 676 675 674 673 672 672 671 670 669 669 668 667 667 666 666 665 664 663 662 662 661 661 660 660 660 660 660 660
722 721 720 719 717 716 714 713 712 710 709 708 707 705 704 702 701 700 698 697 696 695 694 692 691 690 689 688 687 686 685 683 682 681 679 678 677 677 676 676 675 674 673 672 671 671 670 669 668 668 667 666 665 665 664 663 662 662 661 661 660 659 659 658 657 657 657 657 657
722 720 719 717 716 714 713 712 711 709 708 707 705 704 702 701 700 698 697 696 695 693 692 691 690 689 687 686 685 684 683 682 680 679 678 677 676 676 675 674 673 672 671 670 669 669 668 667 667 666 665 665 664 663 662 661 660 659 659 658 657 657 657 656 656 655 655 654 654
720 719 717 716 715 713 712 711 709 708 707 706 704 703 701 700 699 697 696 695 693 692 691 690 688 687 686 685 683 682 681 680 679 678 677 676 675 674 673 672 671 670 669 668 667 667 666 666 665 664 664 663 662 661 660 658 657 657 656 656 655 654 654 654 653 653 653 652 652
719 718 716 715 713 712 711 710 708 707 706 705 703 702 700 699 698 697 695 694 692 691 690 688 687 686 685 683 682 681 680 679 678 677 675 674 673 672 671 670 669 668 667 667 666 665 664 664 663 662 662 661 660 659 658 657 655 654 654 653 652 652 651 651 650 651 651 650 650
718 717 715 714 712 711 710 709 708 706 705 704 702 701 699 698 697 696 694 693 692 690 689 687 686 685 683 682 681 680 679 677 676 675 674 672 671 670 669 668 667 667 666 665 664 663 662 662 661 660 660 659 658 657 655 654 653 652 651 650 649 648 648 647 647 647 648 648 648
717 716 714 713 712 711 709 708 707 706 704 703 701 700 699 697 696 695 693 692 690 689 688 686 685 684 682 681 680 679 677 676 675 673 672 671 670 669 668 667 666 665 664 663 662 662 661 660 659 658 657 657 656 654 653 652 650 649 648 647 646 645 645 645 644 644 645 645 645
716 715 714 712 711 710 709 707 706 705 703 702 701 699 698 697 695 694 692 691 689 688 687 685 684 683 681 680 679 677 676 675 673 672 671 670 669 667 667 665 664 663 662 662 661 660 659 658 657 656 655 654 653 652 650 649 647 646 645 643 642 642 642 642 642 642 642 642 642
716 714 713 712 711 709 708 707 706 704 703 702 700 699 697 696 694 693 692 690 688 687 686 684 683 682 680 679 677 676 675 674 672 671 670 669 667 666 665 664 663 662 661 660 659 658 657 656 655 654 653 652 651 649 647 646 644 643 641 640 639 639 638 638 638 638 639 639 640
715 714 712 711 710 709 707 706 705 703 702 701 699 698 697 695 694 692 691 689 688 686 685 683 682 681 679 678 676 675 674 673 672 670 669 668 667 665 664 662 662 660 660 659 658 657 655 654 653 652 650 649 648 646 644 642 641 639 637 636 635 634 634 635 635 635 635 636 637
714 713 712 711 710 708 707 706 704 703 702 700 699 697 696 695 693 691 690 688 687 686 684 683 682 680 679 677 676 674 673 672 671 669 668 667 665 664 663 661 660 659 658 657 656 655 653 652 651 649 648 647 645 643 641 639 636 635 633 631 630 630 630 630 631 631 632 633 634
714 713 712 710 709 708 707 705 704 702 701 700 698 697 695 694 692 691 689 688 687 685 683 682 681 679 678 677 675 674 672 671 670 668 667 666 664 663 662 660 659 658 657 656 654 653 652 650 649 647 646 644 642 639 637 635 632 630 628 626 626 625 625 626 626 627 628 629 631
714 712 711 710 708 707 706 705 703 702 701 699 698 696 695 693 692 691 689 687 686 684 683 681 680 678 677 676 674 673 672 670 669 667 666 665 663 662 661 659 658 657 656 654 653 652 650 648 647 645 643 641 638 636 633 630 627 625 623 622 621 621 621 622 623 624 625 626 627
713 712 711 710 708 707 706 704 703 702 700 699 698 696 695 693 692 690 689 687 686 684 682 681 679 678 677 675 674 672 671 670 668 667 666 664 663 661 660 658 657 656 654 653 652 650 648 647 645 643 641 638 636 632 629 626 623 621 619 618 617 617 618 619 620 621 622 623 624
713 712 711 709 708 707 706 704 703 702 700 699 697 696 695 693 692 690 688 687 685 684 682 681 679 678 677 675 673 672 671 669 668 667 665 663 662 661 659 657 656 655 653 652 650 648 647 645 643 641 639 636 633 630 626 623 620 617 616 615 614 614 615 616 617 618 619 620 621
713 712 711 709 708 707 706 704 703 702 700 699 697 696 694 693 692 690 688 687 685 684 682 681 679 677 676 675 673 672 670 669 667 666 665 663 662 660 659 657 655 654 652 650 649 647 645 643 641 639 636 634 631 627 624 620 617 615 614 613 613 613 613 614 615 616 617 618 619
713 712 711 709 708 707 706 704 703 702 700 699 697 696 694 693 692 690 688 687 685 684 682 681 679 677 676 674 673 671 670 668 667 665 664 662 661 659 658 657 655 653 651 649 648 646 644 642 640 637 635 632 629 625 622 619 616 614 613 612 612 612 613 613 614 615 616 616 617
713 712 711 709 708 707 706 704 703 702 701 699 697 696 694 693 691 690 688 687 685 684 682 681 679 677 676 674 673 671 669 668 666 665 663 662 660 659 657 656 654 652 650 648 647 645 643 641 638 636 633 631 627 624 621 617 615 613 612 611 611 612 612 612 613 614 614 615 616
Wind_Speed
17 18 19 19 20 21 21 22 22 22 21 22 22 22 23 23 23 23 23 22 22 22 22 22 22 21 21 21 21 22 22 22 22 21 21 21 22 22 23 23 23 22 21 21 21 22 23 23 23 22 22 21 21 21 21 21 21 21 21 21 20 20 21 21 21 22 22 23 23
20 20 21 21 21 22 22 22 22 22 22 22 22 22 23 23 22 23 22 22 21 21 21 21 21 21 21 21 21 21 21 21 21 20 20 21 22 22 22 22 22 21 21 21 22 22 23 23 23 22 22 22 21 21 22 21 21 21 22 22 22 22 21 21 21 22 23 23 23
21 21 21 21 22 22 22 22 22 22 22 22 21 21 21 21 20 20 20 20 20 20 20 20 20 20 21 21 21 20 19 19 18 19 19 20 21 22 22 22 22 21 21 22 23 23 23 23 24 23 22 22 22 22 22 22 22 21 22 23 22 22 21 22 23 23 22 22 22
20 20 20 20 20 21 20 20 20 20 20 20 20 19 19 19 18 18 18 18 18 19 19 19 20 20 20 20 19 18 18 18 20 21 22 23 23 23 23 22 22 22 23 23 24 24 25 25 25 24 24 23 24 24 23 22 22 22 22 22 22 22 22 22 23 23 22 22 23
19 19 19 19 19 19 19 19 18 18 19 19 18 18 17 17 17 17 17 17 18 18 18 19 19 19 20 20 21 21 21 22 23 24 24 24 24 24 23 22 22 23 24 25 25 26 26 26 25 25 24 24 24 24 23 23 22 22 23 23 23 23 23 23 22 22 22 22 24
18 19 19 18 18 18 18 18 18 19 19 19 19 19 19 18 18 18 18 19 20 20 20 21 21 22 23 24 24 24 24 24 23 24 24 24 24 23 22 22 23 24 24 25 26 26 26 26 25 25 24 24 25 25 25 24 24 24 24 24 23 23 23 24 24 23 23 24 25
18 19 19 19 18 18 19 20 20 20 21 21 20 20 20 20 20 20 21 22 22 23 23 23 24 24 24 24 23 23 23 23 23 23 22 21 22 22 22 23 24 24 25 25 25 25 24 24 24 23 23 23 24 24 25 25 25 25 25 25 24 23 23 24 23 23 24 25 26
18 19 19 19 19 19 20 21 22 22 23 22 21 21 21 22 22 23 23 24 24 25 25 24 24 24 24 24 23 23 23 23 23 22 22 22 23 24 24 24 24 23 23 23 22 21 21 21 22 22 23 22 22 23 24 24 25 26 26 26 26 25 25 24 24 23 23 25 26
19 19 19 19 20 20 21 22 22 22 22 22 21 22 22 23 24 24 24 24 25 26 25 25 25 25 25 25 25 24 23 21 20 20 21 22 23 24 24 24 23 22 22 22 22 22 22 22 22 22 23 24 24 24 24 23 23 25 26 26 27 27 26 26 26 26 25 25 25
19 20 20 20 21 21 21 22 21 21 21 21 22 23 23 24 25 25 26 26 26 26 26 26 26 25 25 25 24 23 21 19 19 21 22 22 22 22 23 23 23 23 23 24 24 24 24 24 23 23 24 24 24 26 26 25 24 24 24 25 26 27 28 28 28 28 27 26 26
19 20 20 20 21 21 21 20 20 20 20 21 22 23 25 25 26 26 26 26 26 26 25 25 24 23 23 22 21 21 20 20 20 21 22 23 24 24 24 24 25 25 25 26 25 25 25 24 24 24 24 24 24 25 26 27 27 26 25 25 26 27 29 30 30 29 28 27 27
20 20 20 20 20 20 20 20 20 21 22 23 24 25 25 26 26 26 26 25 24 23 21 21 20 21 21 21 21 21 21 21 22 23 24 24 25 26 26 26 26 26 26 26 26 25 25 24 25 25 25 25 25 24 25 25 26 27 27 28 28 29 30 30 30 30 29 28 27
20 20 20 20 20 20 20 20 21 22 23 24 25 25 26 26 26 25 23 21 19 19 19 20 21 22 22 22 22 22 22 22 23 24 25 25 26 26 26 26 26 26 26 26 26 25 25 25 25 26 26 26 25 25 25 25 26 26 27 28 29 30 31 30 30 30 29 28 28
20 20 20 20 20 20 20 21 22 23 23 24 25 25 25 24 23 21 19 18 18 19 21 22 22 22 22 23 23 23 24 24 25 25 26 26 26 26 26 26 26 26 26 26 26 26 26 26 26 27 27 27 27 27 27 26 26 26 27 27 28 29 30 30 30 29 29 29 28
19 19 20 20 21 21 21 22 23 23 23 24 23 22 21 20 19 18 19 19 21 21 21 22 22 22 23 23 24 24 25 25 26 26 26 26 26 26 26 26 26 26 26 26 26 27 27 27 27 28 28 28 28 28 28 28 28 27 27 27 27 28 29 30 29 29 28 28 28
19 19 20 21 21 22 22 22 22 22 22 21 20 19 19 19 20 20 20 21 21 21 21 21 22 22 23 24 24 24 24 24 25 25 25 25 25 25 25 25 26 26 26 27 27 27 28 28 28 28 28 29 29 29 29 29 29 29 29 28 28 28 29 29 30 30 29 29 29
19 20 20 21 21 21 21 22 22 21 20 19 19 19 19 20 20 20 20 21 21 21 22 22 22 22 23 23 23 23 23 24 24 24 24 25 25 25 25 26 26 27 27 27 27 27 28 28 28 28 28 29 30 30 30 30 30 30 30 30 29 29 30 30 30 31 31 31 31
19 20 20 20 20 20 21 21 21 20 19 19 19 19 19 19 20 21 21 21 22 22 23 23 23 23 23 23 23 23 23 23 24 24 24 25 25 26 26 26 27 27 27 28 28 28 28 28 29 29 29 29 30 30 30 30 30 30 30 30 30 30 30 31 31 31 32 32 33
19 19 18 18 19 19 20 20 19 19 18 18 19 19 20 20 21 21 22 22 22 22 23 23 24 24 23 23 24 24 24 24 24 25 25 25 26 26 26 27 27 27 27 28 28 28 29 29 30 30 30 30 30 30 30 30 31 31 31 31 31 31 31 31 32 32 32 33 33
17 17 17 18 18 19 19 19 18 18 19 19 20 20 21 21 22 22 22 23 23 23 23 23 24 24 24 24 24 24 25 25 25 25 25 26 26 26 26 27 27 27 27 28 28 29 29 30 30 30 30 30 30 30 30 31 31 31 31 31 31 32 32 32 32 32 33 33 33
16 17 17 18 18 18 18 18 19 19 20 20 20 21 21 22 22 22 22 23 23 23 23 23 24 24 24 24 24 25 25 25 25 25 25 26 26 26 26 27 27 27 28 28 28 28 29 29 29 30 30 30 30 31 31 31 31 32 32 32 32 32 33 32 32 32 33 33 33
16 17 17 17 17 18 18 19 19 20 20 20 21 21 22 22 22 22 23 23 23 23 23 23 23 24 24 24 24 25 25 25 25 25 25 26 26 26 26 26 26 27 27 27 28 28 28 28 29 30 30 31 32 32 33 32 32 32 33 34 34 33 33 32 32 32 33 33 33
17 17 17 17 17 18 18 19 20 20 20 21 21 21 22 23 23 23 23 23 23 23 23 23 23 23 23 24 24 25 25 25 25 25 26 26 26 27 27 27 27 27 27 26 26 26 27 27 27 28 28 27 27 27 28 29 31 32 32 33 32 32 33 33 33 33 33 33 33
17 17 17 17 18 18 19 20 20 20 20 21 21 22 22 23 23 23 23 23 23 23 23 23 23 23 23 23 23 24 24 24 25 25 26 26 26 26 26 26 25 25 25 25 25 25 24 23 22 21 20 19 19 20 21 21 22 22 23 23 25 26 28 30 32 32 33 33 32
17 17 18 18 19 19 20 20 20 20 20 21 21 22 22 23 23 23 23 23 22 22 22 22 23 23 22 22 22 22 23 23 24 24 25 25 25 24 23 22 22 23 23 23 22 21 20 19 19 19 20 20 21 22 23 24 25 25 24 22 22 21 22 24 26 29 31 32 33
17 18 18 18 19 20 19 19 20 20 20 21 21 22 22 22 23 23 22 22 22 22 22 22 22 22 21 21 21 21 22 22 23 23 23 22 21 21 21 21 22 22 21 20 19 19 21 22 23 24 24 23 23 23 23 24 25 26 26 24 23 22 22 22 22 23 25 28 31
17 18 18 19 19 19 19 19 20 20 21 21 21 22 22 22 22 22 22 21 22 22 22 22 21 21 21 20 20 20 21 21 21 21 21 21 21 21 21 22 21 21 20 20 21 22 23 23 23 24 24 24 23 23 23 23 24 25 25 25 24 24 24 23 23 22 23 24 26
18 18 19 19 19 19 19 20 20 20 21 21 22 22 22 22 21 21 21 21 21 21 21 21 20 20 19 19 19 20 20 21 22 22 22 21 21 21 21 21 20 20 21 21 22 22 23 23 23 23 23 23 24 24 24 24 24 24 24 24 25 25 25 24 24 23 23 23 23
18 19 19 19 19 19 20 20 20 21 21 21 22 21 21 21 21 21 21 21 21 21 20 20 20 19 19 19 19 20 21 21 22 22 22 21 21 20 20 20 20 21 22 22 22 22 22 22 22 22 22 23 24 25 25 24 24 24 24 24 24 24 24 24 24 24 24 23 23
18 19 19 19 19 19 19 20 20 21 21 21 21 21 21 20 20 20 20 20 20 20 20 20 20 19 19 20 20 21 21 21 21 21 21 20 19 19 20 20 21 21 21 21 21 21 21 21 21 22 22 23 24 25 26 25 24 24 24 24 24 24 24 24 24 24 24 24 23
18 18 19 19 19 19 19 20 20 21 21 21 21 20 20 20 20 20 20 20 20 20 20 20 20 20 20 20 21 21 21 21 20 20 19 18 19 19 19 20 20 20 20 20 20 20 20 21 21 22 23 24 25 26 26 25 25 25 25 25 25 25 25 25 24 24 24 24 23
18 18 19 19 19 19 19 20 20 20 20 20 20 19 19 19 19 19 19 19 19 20 20 19 19 20 20 21 21 20 20 19 19 18 18 18 19 19 19 19 19 19 19 19 19 20 20 21 22 23 24 25 26 27 27 27 27 27 27 27 27 27 27 26 25 25 24 24 23
18 18 18 18 18 19 19 19 20 20 20 19 19 19 19 19 19 19 19 19 19 19 19 19 19 19 20 20 20 20 19 18 18 18 18 18 19 19 19 19 19 19 19 19 19 20 21 22 23 24 25 26 27 28 28 28 28 28 28 28 28 29 29 28 27 27 26 25 24
18 18 18 18 18 19 19 19 19 19 19 19 18 18 19 19 19 19 19 19 19 19 19 19 19 19 20 19 19 19 18 18 18 18 19 19 19 19 19 19 18 19 19 19 20 21 22 22 23 24 26 27 28 29 29 29 29 29 29 29 29 29 29 29 29 29 28 26 25
18 18 18 18 18 18 19 19 19 19 19 18 18 18 19 19 19 19 19 19 19 19 19 19 19 19 19 19 19 19 19 19 19 19 19 19 20 20 19 19 19 19 19 20 21 21 22 23 24 25 27 29 29 29 29 29 29 30 30 31 30 30 30 29 29 29 29 28 26
18 18 18 18 18 18 18 19 19 19 18 18 18 19 19 19 19 19 19 19 19 19 19 19 19 19 19 19 19 19 19 19 19 19 19 19 19 19 19 19 20 20 20 21 22 22 23 24 25 27 28 29 30 29 29 28 28 29 30 30 30 30 29 29 28 28 28 28 27
18 18 18 18 18 18 18 18 18 18 18 18 18 19 19 19 19 19 19 19 19 19 19 19 19 19 19 20 20 19 19 19 19 19 19 19 19 19 19 20 20 21 22 22 23 23 24 25 26 28 29 30 30 29 29 27 26 26 26 27 27 28 28 27 27 26 26 27 27
18 18 18 17 17 17 17 18 18 18 17 17 18 18 19 18 18 18 19 19 18 18 19 18 18 19 19 20 20 20 19 19 19 19 19 19 19 19 19 20 20 21 22 23 23 24 24 25 27 28 29 30 30 29 27 26 24 23 22 22 22 23 24 24 24 25 25 25 26
18 17 17 17 17 17 17 18 18 17 17 17 18 18 18 18 18 18 18 18 18 18 18 18 19 19 20 20 19 19 19 19 19 19 19 19 19 19 19 20 20 22 23 24 24 24 25 26 27 28 29 30 30 28 25 23 21 20 19 18 17 18 19 20 21 22 23 24 25
17 17 16 16 16 16 17 17 17 17 17 17 18 18 18 18 18 18 19 19 19 19 18 18 19 19 20 20 19 18 18 19 19 19 20 20 19 19 19 20 21 22 24 25 25 25 25 26 27 28 29 30 29 27 24 21 19 18 16 14 13 14 15 17 19 20 21 22 23
16 16 16 16 16 16 17 17 17 17 17 18 18 18 18 18 18 19 19 19 19 19 18 18 18 19 19 19 18 17 18 19 19 20 20 20 20 19 19 20 21 23 24 25 25 25 26 26 27 28 29 29 29 26 22 20 17 14 13 12 12 12 13 15 17 18 19 20 21
Wind_Direction
311 311 311 310 310 309 308 306 305 303 302 301 300 298 297 296 294 292 290 288 287 286 286 286 286 286 287 286 285 283 282 282 281 280 281 283 284 285 284 282 281 280 281 283 286 289 290 290 290 288 285 282 278 276 274 272 272 272 272 272 273 274 276 277 278 279 280 281 280
312 311 310 309 308 307 306 305 304 302 301 300 298 297 296 294 292 290 289 287 285 285 285 286 286 286 285 283 282 280 279 279 279 279 280 282 284 284 283 281 279 278 279 281 283 285 286 287 287 285 283 280 278 276 274 272 271 271 270 269 270 272 274 274 275 276 277 280 280
313 311 310 309 308 308 308 307 305 304 303 301 299 297 295 293 291 289 288 286 285 285 285 285 284 284 282 281 279 278 277 277 279 281 282 282 282 281 279 278 278 278 279 280 281 281 281 282 281 280 278 277 276 275 274 273 272 271 270 268 268 268 269 270 270 272 273 275 278
314 313 313 312 311 311 310 308 306 305 303 302 300 297 295 292 290 287 286 286 285 284 283 283 284 284 284 284 282 281 280 281 282 283 282 281 279 276 275 275 277 278 279 279 279 279 279 279 278 276 274 273 272 272 272 272 271 270 268 267 266 266 266 267 267 268 270 271 273
317 317 316 314 313 311 308 306 304 303 301 300 298 295 293 291 289 287 286 285 284 283 284 285 286 287 287 286 285 284 283 283 283 283 282 280 277 275 274 275 276 277 278 278 278 279 279 278 276 274 272 271 270 269 268 268 268 267 267 266 265 264 264 265 265 266 267 269 270
319 316 314 312 310 307 304 302 300 299 298 296 294 292 290 288 287 286 285 284 284 284 285 285 285 285 285 284 283 283 282 282 282 282 281 278 276 276 277 278 279 278 278 277 278 279 278 276 273 271 270 268 267 266 265 264 264 264 264 264 263 262 262 263 264 264 265 266 267
314 312 310 308 306 304 301 299 298 297 296 294 291 289 287 286 285 283 283 283 285 285 284 284 283 283 282 282 281 280 280 280 281 281 279 277 278 279 280 280 279 278 276 275 275 276 275 273 271 269 268 267 266 264 262 260 259 259 259 260 260 260 261 261 262 263 263 264 265
311 309 308 306 304 302 300 299 298 297 295 293 289 287 286 286 285 284 284 284 284 284 283 283 282 281 281 279 278 277 276 277 278 278 277 277 278 279 279 279 278 276 275 274 273 273 274 274 273 272 272 271 268 265 262 259 257 256 256 257 259 259 259 259 260 260 261 262 263
311 309 307 306 304 302 301 300 300 298 295 292 289 288 288 287 287 286 285 285 284 284 284 282 281 280 278 276 274 273 273 273 274 276 277 277 278 278 278 276 275 274 274 274 275 276 276 276 274 273 271 270 269 269 267 264 259 256 254 255 257 258 257 257 259 260 260 260 261
311 309 308 306 305 304 303 302 300 298 295 292 291 290 289 288 287 286 285 286 286 286 284 282 280 277 275 273 273 273 273 274 276 278 280 278 277 276 275 275 274 273 273 274 275 275 275 273 271 268 267 266 266 268 269 268 265 260 257 255 256 257 257 257 258 258 259 259 260
310 309 308 306 305 305 304 302 300 297 295 293 292 291 290 289 288 288 287 287 285 284 283 283 282 280 278 278 279 279 280 280 281 281 280 279 277 276 275 274 274 273 273 273 273 273 272 270 268 266 265 264 264 265 266 266 265 264 262 259 258 257 257 257 256 255 256 258 259
310 309 308 306 305 304 303 300 298 297 295 294 293 293 293 292 291 289 287 284 282 283 287 291 292 292 291 290 289 288 286 284 283 281 279 278 277 276 275 274 273 272 272 272 272 271 269 267 266 265 264 264 263 263 264 264 264 264 263 262 261 258 256 254 253 253 254 256 257
309 308 307 305 304 303 301 299 297 296 296 295 296 296 295 292 290 287 284 283 286 293 298 300 299 297 295 293 291 288 286 283 281 280 279 278 278 277 276 274 273 272 272 272 271 270 267 265 264 264 263 263 262 262 262 262 262 262 261 261 260 259 256 253 251 251 252 254 255
309 307 305 304 303 301 299 298 298 297 296 296 296 295 293 290 289 288 289 293 299 302 302 300 297 294 291 288 287 285 283 282 281 280 279 278 277 276 275 274 273 273 272 271 271 269 267 265 263 263 262 262 261 261 261 260 260 259 259 259 258 257 256 254 251 250 250 251 253
308 306 305 303 302 300 299 299 299 298 296 294 293 293 293 294 296 299 302 304 304 302 300 297 294 291 289 286 285 284 283 282 281 280 279 278 277 276 274 273 273 272 271 271 270 268 266 264 263 262 261 261 261 260 260 259 258 257 256 256 256 255 255 254 252 249 248 249 252
307 306 304 303 301 301 301 301 300 298 295 293 295 298 302 305 306 307 306 304 302 300 297 294 292 290 289 287 285 284 283 282 281 280 278 277 277 276 274 273 272 271 271 270 269 268 266 265 263 262 261 261 260 260 259 258 256 256 255 254 254 253 253 252 251 250 249 249 251
306 304 303 303 302 303 303 303 300 298 296 297 301 306 308 308 307 305 303 301 299 297 295 293 291 289 288 287 286 285 283 282 281 279 278 277 277 276 274 273 273 272 271 270 268 267 266 265 264 263 262 261 260 259 258 257 256 255 254 254 252 251 251 250 250 249 249 249 250
303 303 304 305 305 305 305 304 301 299 300 303 307 308 307 305 304 302 300 299 298 296 294 293 291 290 289 288 287 286 285 283 282 280 278 278 277 276 275 274 273 272 271 270 268 267 267 266 265 264 263 261 260 259 258 256 255 255 254 253 252 251 249 249 248 248 248 249 250
304 305 307 308 308 308 306 305 303 304 306 308 308 307 305 303 302 301 299 298 297 296 295 294 293 292 290 289 288 287 286 285 283 281 279 278 278 277 276 274 273 272 271 270 268 267 267 267 266 265 263 261 260 259 258 256 255 254 253 252 251 250 249 248 247 247 247 248 249
306 308 310 310 310 309 308 307 308 309 310 310 309 307 305 303 302 301 300 299 298 298 296 295 294 293 292 290 290 288 287 286 284 283 281 280 279 277 276 275 274 273 272 271 270 268 267 266 265 264 262 260 260 259 257 256 255 254 253 252 251 250 248 247 246 246 246 247 247
310 311 312 312 312 311 311 311 311 311 310 309 307 306 305 304 303 302 301 301 301 300 298 296 294 293 292 291 290 289 288 287 285 283 282 281 280 279 278 277 276 275 273 272 270 269 268 266 265 263 262 260 259 258 256 255 255 254 253 252 251 250 248 246 245 245 245 244 244
313 314 314 314 314 313 313 312 311 310 309 308 308 307 307 306 306 305 305 305 304 302 300 297 295 294 293 292 291 290 289 288 286 285 283 283 282 281 280 279 277 275 273 271 270 270 268 267 265 264 262 260 257 256 255 254 253 253 252 251 250 249 248 246 245 244 243 242 241
315 316 317 316 315 314 312 311 311 311 311 310 310 309 309 308 308 309 308 307 305 303 301 298 297 295 294 293 292 291 290 289 288 287 286 285 283 282 281 280 277 275 273 272 271 271 270 268 266 264 262 260 259 260 260 259 255 253 252 251 251 249 248 247 246 245 243 242 241
317 318 318 317 315 314 313 313 313 313 313 313 311 311 311 310 311 310 309 308 306 303 301 300 298 297 296 295 294 292 291 290 289 289 288 287 284 282 280 279 276 275 274 274 273 272 270 269 268 268 269 272 276 279 279 275 269 266 266 266 263 258 253 250 248 246 244 243 241
318 318 318 317 316 316 317 317 317 316 315 314 313 313 313 312 312 311 310 308 306 305 303 302 301 299 298 296 296 295 294 292 291 290 288 286 284 282 281 281 280 279 277 276 275 274 276 279 284 287 289 290 290 289 286 284 283 285 285 283 277 271 266 261 255 250 247 244 242
319 319 318 318 319 320 320 320 319 317 316 315 314 314 314 314 313 311 310 308 307 306 305 304 303 301 300 299 298 298 297 295 293 291 288 287 287 289 289 288 285 283 282 282 283 286 289 291 293 293 292 290 287 285 284 283 282 282 281 279 275 272 270 269 266 261 254 248 244
321 321 321 322 322 322 322 322 320 319 318 317 317 316 315 314 313 312 310 309 309 308 307 306 304 303 302 301 300 299 298 297 295 293 292 292 293 293 292 289 288 288 289 291 294 295 296 295 293 290 288 285 283 281 280 280 279 278 277 275 272 269 266 265 265 266 265 259 252
323 324 324 325 324 323 323 322 321 320 319 318 318 317 316 316 314 313 312 311 311 310 309 308 307 306 305 302 301 300 299 298 297 296 296 294 293 291 290 291 293 295 296 297 298 298 296 293 290 288 286 284 283 281 280 278 277 275 273 271 269 266 264 261 260 260 262 264 261
327 327 326 325 324 323 323 322 321 320 320 319 319 318 317 316 315 314 314 314 313 312 311 310 309 308 306 303 301 301 300 300 299 298 296 293 291 290 292 296 298 298 299 300 299 297 295 293 291 290 289 288 287 284 282 279 276 273 270 267 264 263 261 258 257 256 256 258 260
330 329 327 325 324 323 322 322 321 321 321 321 320 319 319 318 318 317 317 316 315 315 314 313 312 309 306 304 304 303 303 302 302 300 297 295 294 297 300 301 302 301 301 301 300 299 297 296 294 293 293 291 289 286 283 279 276 272 269 265 263 260 258 256 254 252 252 252 254
332 329 327 325 323 322 322 322 323 323 323 322 321 320 320 319 320 320 319 319 318 318 318 317 314 312 310 310 309 308 307 306 306 305 304 304 305 307 307 307 306 305 304 305 304 303 302 299 297 296 295 293 291 288 284 281 277 274 269 266 263 259 256 255 252 250 248 248 248
332 329 327 325 323 323 323 324 325 324 324 323 322 322 322 321 322 323 323 323 323 322 321 320 318 316 315 315 315 313 313 313 314 315 316 316 315 314 313 312 310 309 310 310 309 307 304 302 300 298 297 296 294 291 287 283 279 274 270 266 262 259 255 252 250 248 246 245 244
332 330 328 326 325 325 325 326 326 326 325 324 325 325 325 326 326 326 327 327 326 325 323 322 320 319 318 318 318 318 319 321 323 323 323 322 321 319 317 316 315 315 315 315 312 309 307 304 303 302 301 299 297 293 288 283 279 274 270 265 261 257 253 250 247 245 244 242 242
333 331 329 327 327 327 327 328 328 327 327 326 328 329 330 330 330 330 329 329 329 327 326 324 323 322 322 322 322 323 325 327 327 327 326 325 324 323 321 319 318 319 319 317 314 311 310 308 307 306 305 303 300 295 289 284 278 273 267 263 259 255 250 246 244 242 240 239 239
334 332 330 329 329 329 330 330 330 329 329 330 332 334 334 334 333 332 332 331 331 329 328 328 327 327 328 328 329 329 329 328 328 328 328 328 327 325 323 322 321 321 320 319 317 316 315 313 312 311 309 306 302 296 290 284 277 271 265 261 256 252 247 243 240 238 237 236 236
335 333 332 331 331 332 332 333 332 332 333 336 337 337 337 337 336 335 334 334 333 332 331 331 331 332 332 332 332 332 330 329 329 329 330 330 329 327 325 324 324 323 323 322 322 321 319 318 316 314 312 309 304 299 292 286 278 272 266 259 254 249 245 240 236 234 233 233 232
337 336 335 334 335 335 336 335 334 335 337 340 341 340 339 337 337 337 337 337 336 334 333 332 333 333 334 334 333 332 332 331 331 330 331 332 331 329 328 326 325 325 325 326 326 325 323 321 319 317 315 311 307 302 296 289 281 274 267 260 253 247 242 237 232 229 228 228 229
340 339 339 338 338 339 338 337 337 338 341 344 343 341 340 339 338 339 339 338 337 335 334 334 334 334 335 335 333 333 333 334 333 333 333 333 334 332 329 327 325 326 327 329 329 327 326 324 322 320 318 315 311 306 300 293 286 278 270 261 253 245 238 233 228 226 225 225 227
342 343 342 342 341 341 341 340 340 342 346 346 344 343 342 341 340 340 340 340 339 338 336 335 335 336 337 337 335 334 334 335 336 336 336 336 336 334 332 328 327 328 330 331 331 330 328 327 325 324 323 320 317 312 307 299 291 283 274 263 252 242 233 228 224 223 223 224 226
346 346 346 346 345 345 344 343 344 347 349 348 345 344 343 343 342 342 343 343 343 342 340 338 337 338 339 339 337 335 335 336 338 340 340 340 339 337 334 332 330 330 332 333 333 332 331 330 330 329 328 327 324 321 316 309 299 288 274 260 246 235 227 223 221 220 221 223 225
350 350 350 350 350 349 348 347 349 351 352 350 348 346 345 345 345 345 346 346 346 345 343 341 340 341 341 341 340 338 337 338 340 342 343 343 342 340 338 336 334 333 333 334 334 334 334 335 334 334 333 333 331 329 327 322 310 292 270 251 238 229 222 220 219 220 221 223 225